Flag for Germany Weather past 2 weeks in Erftstadt, North Rhine-Westphalia, Germany

Now
45 °F

Scattered clouds.


Feels Like: 45 °F
Forecast: 45 / 62 °F
Wind: No wind

Location: Noervenich

Current Time: Sep 23, 2014 at 8:51:36 AM

Latest Report: Sep 23, 2014 at 8:20 AM


Visibility: N/A

Pressure: 30.18 "Hg

Humidity: 93%

Dew point: 43 °F

Location of ErftstadtLocation

Historic Weather in Erftstadt — Graph

°F

Erftstadt temperature yesterday

Maximum temperature yesterday: 59 °F (at 11:20 AM)
Minimum temperature yesterday: 50 °F (at 11:20 PM)
Average temperature yesterday: 55 °F

Past Weeks' High & Low Weather Summary

 TemperatureHumidityPressure
High77 °F (Sep 19, 2:20 PM)100% (Sep 8, 8:20 AM)30.24 "Hg (Sep 8, 8:20 AM)
Low45 °F (Sep 23, 5:20 AM)50% (Sep 17, 3:20 PM)29.83 "Hg (Sep 18, 4:20 AM)
Average61 °F82%30.04 "Hg
* Reported Sep 8 7:20 AM — Sep 23 7:20 AM, Erftstadt, Weather by CustomWeather, © 2014

Note: Actual official high and low records may vary slightly from our data, if they occured in-between our weather recording intervals... More about our weather records

Advertising

Erftstadt weather history for previous 24 hours

 ConditionsComfort  
Time TempWeatherWind HumidityBarometerVisibility
7:20 AM
Sep 23
45 °FPassing clouds.1 mph87%30.18 "HgN/A
6:20 AM45 °FPassing clouds.5 mph93%30.18 "HgN/A
5:20 AM45 °FPassing clouds.3 mph93%30.18 "HgN/A
4:20 AM46 °FPassing clouds.5 mph87%30.18 "HgN/A
3:20 AM46 °FPassing clouds.6 mph93%30.18 "HgN/A
2:20 AM46 °FPassing clouds.5 mph93%30.18 "HgN/A
1:20 AM48 °FPassing clouds.2 mph87%30.18 "HgN/A
12:20 AM50 °FCool.2 mph82%30.18 "HgN/A
11:20 PM
Sep 22
50 °FPassing clouds.5 mph82%30.18 "HgN/A
10:20 PM52 °FPassing clouds.5 mph77%30.18 "HgN/A
9:20 PM54 °FPassing clouds.6 mph72%30.18 "HgN/A
8:20 PM55 °FPassing clouds.6 mph67%30.15 "HgN/A
7:20 PM57 °FScattered clouds.5 mph63%30.15 "HgN/A
6:20 PM59 °FPartly sunny.8 mph59%30.12 "HgN/A
5:20 PM59 °FScattered clouds.10 mph59%30.12 "HgN/A
4:20 PM59 °FScattered clouds.10 mph68%30.12 "HgN/A
3:20 PM55 °FSprinkles. Broken clouds.9 mph82%30.12 "HgN/A
2:20 PM52 °FSprinkles. Fog.8 mph88%30.12 "Hg2 mi
1:50 PM57 °FRain showers. Broken clouds.15 mph67%30.09 "Hg3 mi
1:20 PM59 °FSprinkles. Partly sunny.17 mph63%30.09 "HgN/A
12:20 PM57 °FPartly sunny.13 mph67%30.09 "HgN/A
11:20 AM59 °FPartly sunny.15 mph68%30.09 "HgN/A
10:20 AM55 °FPartly sunny.9 mph72%30.12 "HgN/A
9:20 AM54 °FPartly sunny.8 mph82%30.12 "HgN/A
8:20 AM54 °FPartly sunny.9 mph77%30.12 "HgN/A
Weather by CustomWeather, © 2014

See weather overviewHow to use our weather pages